TimeEDT,TemperatureF,Dew PointF,Humidity,Sea Level PressureIn,VisibilityMPH,Wind Direction,Wind SpeedMPH,Gust SpeedMPH,PrecipitationIn,Events,Conditions,WindDirDegrees,DateUTC
12:53 AM,63.0,55.9,78,29.94,10.0,South,3.5,-,N/A,,Clear,170,2012-10-06 04:53:00
1:53 AM,64.0,55.9,75,29.92,10.0,SE,8.1,-,N/A,,Clear,140,2012-10-06 05:53:00
2:53 AM,61.0,55.0,81,29.90,10.0,SSE,4.6,-,N/A,,Clear,150,2012-10-06 06:53:00
3:53 AM,61.0,55.9,83,29.88,10.0,South,5.8,-,N/A,,Clear,180,2012-10-06 07:53:00
4:53 AM,61.0,55.9,83,29.88,10.0,South,4.6,-,N/A,,Scattered Clouds,190,2012-10-06 08:53:00
5:53 AM,60.1,55.9,86,29.87,10.0,South,6.9,-,N/A,,Clear,180,2012-10-06 09:53:00
6:53 AM,60.1,55.9,86,29.86,10.0,South,6.9,-,N/A,,Clear,170,2012-10-06 10:53:00
7:53 AM,62.1,55.9,80,29.86,10.0,SW,5.8,-,0.00,Rain,Light Rain,220,2012-10-06 11:53:00
8:53 AM,63.0,55.9,78,29.87,10.0,SSW,5.8,-,0.00,,Overcast,200,2012-10-06 12:53:00
10:53 AM,66.0,57.9,75,29.90,10.0,West,8.1,-,N/A,,Overcast,260,2012-10-06 14:53:00
11:53 AM,63.0,55.0,75,29.93,10.0,NNW,16.1,23.0,N/A,,Overcast,330,2012-10-06 15:53:00
12:11 PM,62.6,53.6,72,29.91,10.0,NW,15.0,-,N/A,,Overcast,310,2012-10-06 16:11:00
12:53 PM,62.1,48.9,62,29.95,10.0,NW,18.4,-,N/A,,Partly Cloudy,320,2012-10-06 16:53:00
1:53 PM,61.0,46.0,58,29.97,10.0,WNW,19.6,25.3,N/A,,Partly Cloudy,300,2012-10-06 17:53:00
2:53 PM,57.9,44.1,60,30.00,10.0,NNW,18.4,-,N/A,,Overcast,330,2012-10-06 18:53:00
3:53 PM,60.1,43.0,53,30.01,10.0,West,11.5,19.6,N/A,,Mostly Cloudy,280,2012-10-06 19:53:00
4:53 PM,59.0,42.1,53,29.99,10.0,West,10.4,-,N/A,,Clear,280,2012-10-06 20:53:00
5:53 PM,59.0,39.9,49,30.00,10.0,WNW,9.2,-,N/A,,Clear,290,2012-10-06 21:53:00
6:53 PM,57.0,39.0,51,30.02,10.0,SW,3.5,-,N/A,,Clear,220,2012-10-06 22:53:00
7:53 PM,51.1,42.1,71,30.04,10.0,NW,4.6,-,N/A,,Clear,310,2012-10-06 23:53:00
8:53 PM,51.1,41.0,68,30.07,10.0,WNW,4.6,-,N/A,,Clear,300,2012-10-07 00:53:00
9:53 PM,53.1,37.0,55,30.09,10.0,Calm,Calm,-,N/A,,Clear,0,2012-10-07 01:53:00
10:53 PM,51.1,37.9,61,30.10,10.0,Calm,Calm,-,N/A,,Clear,0,2012-10-07 02:53:00